,,PA_Meas_PMT16A,,PR_Meas_QMR101_102,,RH_Meas_QMH101,,SR_Meas_QMS101,,TA_Meas_QMH101,,GenWind,,GenWind,
time,status,PA,status,PR,status,RH,status,SR,status,TA,status,DirAvg,status,SpdAvg,
2012-10-18, 00:00:04,VALID,917.849,VALID,0,VALID,96.8784,VALID,0,VALID,19.3352,VALID,120,VALID,0,
2012-10-18, 00:01:04,VALID,917.853,VALID,0,VALID,96.8784,VALID,0,VALID,19.3937,VALID,120,VALID,0,
2012-10-18, 00:02:04,VALID,917.823,VALID,0,VALID,96.9012,VALID,0,VALID,19.4132,VALID,120,VALID,0,
2012-10-18, 00:03:04,VALID,917.787,VALID,0,VALID,96.8631,VALID,0,VALID,19.4327,VALID,120,VALID,0,
2012-10-18, 00:04:04,VALID,917.81,VALID,0,VALID,96.8479,VALID,0,VALID,19.3937,VALID,120,VALID,0,
2012-10-18, 00:05:04,VALID,917.79,VALID,0,VALID,96.8555,VALID,0,VALID,19.4132,VALID,120,VALID,0,
2012-10-18, 00:06:04,VALID,917.772,VALID,0,VALID,96.8631,VALID,0,VALID,19.4703,VALID,120,VALID,0,
2012-10-18, 00:07:04,VALID,917.739,VALID,0,VALID,96.8784,VALID,0,VALID,19.4508,VALID,120,VALID,0,
2012-10-18, 00:08:04,VALID,917.717,VALID,0,VALID,96.8784,VALID,0,VALID,19.4732,VALID,120,VALID,0,
2012-10-18, 00:09:04,VALID,917.688,VALID,0,VALID,96.8707,VALID,0,VALID,19.4913,VALID,120,VALID,0,
2012-10-18, 00:10:04,VALID,917.695,VALID,0,VALID,96.886,VALID,0,VALID,19.4327,VALID,120,VALID,0,
2012-10-18, 00:11:04,VALID,917.639,VALID,0,VALID,96.8326,VALID,0,VALID,19.3742,VALID,120,VALID,0,
2012-10-18, 00:12:04,VALID,917.618,VALID,0,VALID,96.8479,VALID,0,VALID,19.3937,VALID,120,VALID,0,
2012-10-18, 00:13:04,VALID,917.595,VALID,0,VALID,96.8631,VALID,0,VALID,19.4523,VALID,120,VALID,0,
2012-10-18, 00:14:04,VALID,917.569,VALID,0,VALID,96.9012,VALID,0,VALID,19.4132,VALID,120,VALID,0,
2012-10-18, 00:15:04,VALID,917.516,VALID,0,VALID,96.8784,VALID,0,VALID,19.4132,VALID,120,VALID,0,
2012-10-18, 00:16:04,VALID,917.46,VALID,0,VALID,96.8555,VALID,0,VALID,19.3157,VALID,120,VALID,0,
2012-10-18, 00:17:04,VALID,917.462,VALID,0,VALID,96.8021,VALID,0,VALID,19.2558,VALID,120,VALID,0,
2012-10-18, 00:18:04,VALID,917.448,VALID,0,VALID,96.764,VALID,0,VALID,19.2168,VALID,120,VALID,0,
2012-10-18, 00:19:04,VALID,917.463,VALID,0,VALID,96.7869,VALID,0,VALID,19.2767,VALID,120,VALID,0,
2012-10-18, 00:20:04,VALID,917.484,VALID,0,VALID,96.8479,VALID,0,VALID,19.3352,VALID,120,VALID,0,
2012-10-18, 00:21:04,VALID,917.541,VALID,0,VALID,96.7869,VALID,0,VALID,19.1597,VALID,59,VALID,0,
2012-10-18, 00:22:04,VALID,917.518,VALID,0,VALID,96.7335,VALID,0,VALID,19.1597,VALID,61,VALID,0,
2012-10-18, 00:23:04,VALID,917.54,VALID,0,VALID,96.7183,VALID,0,VALID,19.1207,VALID,65,VALID,0,
2012-10-18, 00:24:04,VALID,917.511,VALID,0,VALID,96.7488,VALID,0,VALID,19.1402,VALID,65,VALID,0,
2012-10-18, 00:25:04,VALID,917.482,VALID,0,VALID,96.7793,VALID,0,VALID,19.1402,VALID,65,VALID,0,
2012-10-18, 00:26:05,VALID,917.469,VALID,0,VALID,96.8021,VALID,0,VALID,19.1402,VALID,65,VALID,0,
2012-10-18, 00:27:05,VALID,917.46,VALID,0,VALID,96.8326,VALID,0,VALID,19.1778,VALID,65,VALID,0,
2012-10-18, 00:28:05,VALID,917.469,VALID,0,VALID,96.8707,VALID,0,VALID,19.1583,VALID,65,VALID,0,
2012-10-18, 00:29:05,VALID,917.472,VALID,0,VALID,96.8784,VALID,0,VALID,19.1987,VALID,65,VALID,0,
2012-10-18, 00:30:05,VALID,917.467,VALID,0,VALID,96.8555,VALID,0,VALID,19.1402,VALID,65,VALID,0,
2012-10-18, 00:31:05,VALID,917.479,VALID,0,VALID,96.8707,VALID,0,VALID,19.2182,VALID,65,VALID,0,
2012-10-18, 00:32:05,VALID,917.492,VALID,0,VALID,96.886,VALID,0,VALID,19.2182,VALID,65,VALID,0,
2012-10-18, 00:33:05,VALID,917.487,VALID,0,VALID,96.9089,VALID,0,VALID,19.2377,VALID,65,VALID,0,
2012-10-18, 00:34:05,VALID,917.472,VALID,0,VALID,96.8936,VALID,0,VALID,19.1778,VALID,65,VALID,0,
2012-10-18, 00:35:05,VALID,917.451,VALID,0,VALID,96.9241,VALID,0,VALID,19.2572,VALID,65,VALID,0,
2012-10-18, 00:36:05,VALID,917.425,VALID,0,VALID,96.9241,VALID,0,VALID,19.1597,VALID,65,VALID,0,
2012-10-18, 00:37:05,VALID,917.377,VALID,0,VALID,96.9012,VALID,0,VALID,19.1792,VALID,68,VALID,0,
2012-10-18, 00:38:05,VALID,917.403,VALID,0,VALID,96.8784,VALID,0,VALID,19.1807,VALID,150,VALID,0,
2012-10-18, 00:39:05,VALID,917.412,VALID,0,VALID,96.8784,VALID,0,VALID,19.1597,VALID,150,VALID,0,
2012-10-18, 00:40:05,VALID,917.392,VALID,0,VALID,96.9089,VALID,0,VALID,19.1597,VALID,150,VALID,0,
2012-10-18, 00:41:05,VALID,917.398,VALID,0,VALID,96.9241,VALID,0,VALID,19.1973,VALID,150,VALID,0,
2012-10-18, 00:42:05,VALID,917.389,VALID,0,VALID,96.9622,VALID,0,VALID,19.1597,VALID,150,VALID,0,
2012-10-18, 00:43:05,VALID,917.327,VALID,0,VALID,96.9241,VALID,0,VALID,19.1597,VALID,150,VALID,0,
2012-10-18, 00:44:05,VALID,917.319,VALID,0,VALID,96.9241,VALID,0,VALID,19.1012,VALID,150,VALID,0,
2012-10-18, 00:45:05,VALID,917.31,VALID,0,VALID,96.9089,VALID,0,VALID,19.1597,VALID,150,VALID,0,
2012-10-18, 00:46:05,VALID,917.3,VALID,0,VALID,96.9012,VALID,0,VALID,19.1012,VALID,150,VALID,0,
2012-10-18, 00:47:05,VALID,917.28,VALID,0,VALID,96.9165,VALID,0,VALID,19.1012,VALID,150,VALID,0,
2012-10-18, 00:48:05,VALID,917.264,VALID,0,VALID,96.9165,VALID,0,VALID,19.1207,VALID,150,VALID,0,
2012-10-18, 00:49:05,VALID,917.226,VALID,0,VALID,96.9241,VALID,0,VALID,19.1193,VALID,150,VALID,0,
2012-10-18, 00:50:05,VALID,917.213,VALID,0,VALID,96.9394,VALID,0,VALID,19.1597,VALID,150,VALID,0,
2012-10-18, 00:51:05,VALID,917.202,VALID,0,VALID,96.947,VALID,0,VALID,19.1597,VALID,150,VALID,0,
2012-10-18, 00:52:05,VALID,917.167,VALID,0,VALID,96.9165,VALID,0,VALID,19.1012,VALID,150,VALID,0,
2012-10-18, 00:53:05,VALID,917.113,VALID,0,VALID,96.8936,VALID,0,VALID,19.1402,VALID,150,VALID,0,
2012-10-18, 00:54:05,VALID,917.107,VALID,0,VALID,96.9012,VALID,0,VALID,19.1792,VALID,150,VALID,0,
2012-10-18, 00:55:05,VALID,917.063,VALID,0,VALID,96.9012,VALID,0,VALID,19.1402,VALID,150,VALID,0,
2012-10-18, 00:56:05,VALID,917.07,VALID,0,VALID,96.8936,VALID,0,VALID,19.1012,VALID,150,VALID,0,
2012-10-18, 00:57:05,VALID,917.071,VALID,0,VALID,96.9012,VALID,0,VALID,19.0817,VALID,150,VALID,0,
2012-10-18, 00:58:05,VALID,917.066,VALID,0,VALID,96.9012,VALID,0,VALID,19.1402,VALID,150,VALID,0,
2012-10-18, 00:59:05,VALID,917.038,VALID,0,VALID,96.9012,VALID,0,VALID,19.1207,VALID,150,VALID,0,
2012-10-18, 01:00:05,VALID,917.021,VALID,0,VALID,96.8784,VALID,0,VALID,19.1012,VALID,150,VALID,0,
2012-10-18, 01:01:05,VALID,917.028,VALID,0,VALID,96.8631,VALID,0,VALID,19.1012,VALID,150,VALID,0,
2012-10-18, 01:02:05,VALID,916.986,VALID,0,VALID,96.8555,VALID,0,VALID,19.1402,VALID,150,VALID,0,
2012-10-18, 01:03:05,VALID,916.992,VALID,0,VALID,96.8098,VALID,0,VALID,19.0608,VALID,150,VALID,0,
2012-10-18, 01:04:05,VALID,916.962,VALID,0,VALID,96.703,VALID,0.107441,VALID,19.0232,VALID,120,VALID,0,
2012-10-18, 01:05:05,VALID,916.964,VALID,0,VALID,96.6725,VALID,0,VALID,18.9647,VALID,114,VALID,0,
2012-10-18, 01:06:05,VALID,916.876,VALID,0,VALID,96.7411,VALID,0,VALID,18.9842,VALID,114,VALID,0,
2012-10-18, 01:07:05,VALID,916.878,VALID,0,VALID,96.7716,VALID,0,VALID,18.9842,VALID,114,VALID,0,
2012-10-18, 01:08:05,VALID,916.842,VALID,0,VALID,96.7793,VALID,0,VALID,18.9272,VALID,114,VALID,0,
2012-10-18, 01:09:05,VALID,916.83,VALID,0,VALID,96.825,VALID,0,VALID,18.9857,VALID,114,VALID,0,
2012-10-18, 01:10:05,VALID,916.827,VALID,0,VALID,96.8555,VALID,0,VALID,19.0622,VALID,114,VALID,0,
2012-10-18, 01:11:05,VALID,916.841,VALID,0,VALID,96.8631,VALID,0,VALID,19.1207,VALID,108,VALID,0,
2012-10-18, 01:12:05,VALID,916.826,VALID,0,VALID,96.8707,VALID,0,VALID,19.1012,VALID,105,VALID,0,
2012-10-18, 01:13:05,VALID,916.806,VALID,0,VALID,96.8631,VALID,0,VALID,19.0232,VALID,88,VALID,0,
2012-10-18, 01:14:05,VALID,916.788,VALID,0,VALID,96.8479,VALID,0,VALID,19.1012,VALID,86,VALID,0,
2012-10-18, 01:15:05,VALID,916.754,VALID,0,VALID,96.8784,VALID,0,VALID,19.0622,VALID,95,VALID,0,
2012-10-18, 01:16:05,VALID,916.748,VALID,0,VALID,96.8707,VALID,0,VALID,19.1417,VALID,103,VALID,0,
2012-10-18, 01:17:05,VALID,916.723,VALID,0,VALID,96.8784,VALID,0,VALID,19.1402,VALID,103,VALID,0,
2012-10-18, 01:18:05,VALID,916.73,VALID,0,VALID,96.886,VALID,0,VALID,19.1207,VALID,103,VALID,0,
2012-10-18, 01:19:05,VALID,916.751,VALID,0,VALID,96.8936,VALID,0,VALID,19.1792,VALID,103,VALID,0,
2012-10-18, 01:20:05,VALID,916.741,VALID,0,VALID,96.8784,VALID,0,VALID,19.1597,VALID,103,VALID,0,
2012-10-18, 01:21:05,VALID,916.737,VALID,0,VALID,96.886,VALID,0,VALID,19.1402,VALID,103,VALID,0,
2012-10-18, 01:22:05,VALID,916.772,VALID,0,VALID,96.8784,VALID,0,VALID,19.1792,VALID,103,VALID,0,
2012-10-18, 01:23:05,VALID,916.768,VALID,0,VALID,96.8403,VALID,0,VALID,19.1402,VALID,103,VALID,0,
2012-10-18, 01:24:05,VALID,916.757,VALID,0,VALID,96.8326,VALID,0,VALID,19.0622,VALID,103,VALID,0,
2012-10-18, 01:25:05,VALID,916.802,VALID,0,VALID,96.8326,VALID,0,VALID,19.1027,VALID,103,VALID,0,
2012-10-18, 01:26:05,VALID,916.767,VALID,0,VALID,96.8479,VALID,0,VALID,19.1012,VALID,103,VALID,0,
2012-10-18, 01:27:05,VALID,916.776,VALID,0,VALID,96.8631,VALID,0,VALID,19.1012,VALID,103,VALID,0,
2012-10-18, 01:28:05,VALID,916.792,VALID,0,VALID,96.8707,VALID,0,VALID,19.1207,VALID,103,VALID,0,
2012-10-18, 01:29:05,VALID,916.765,VALID,0,VALID,96.8707,VALID,0,VALID,19.0817,VALID,103,VALID,0,
2012-10-18, 01:30:05,VALID,916.766,VALID,0,VALID,96.8936,VALID,0,VALID,19.1207,VALID,103,VALID,0,
2012-10-18, 01:31:05,VALID,916.757,VALID,0,VALID,96.9012,VALID,0,VALID,19.1207,VALID,103,VALID,0,
2012-10-18, 01:32:05,VALID,916.702,VALID,0,VALID,96.947,VALID,0,VALID,19.1207,VALID,132,VALID,0,
2012-10-18, 01:33:05,VALID,916.715,VALID,0,VALID,96.9165,VALID,0,VALID,19.1012,VALID,127,VALID,0,
2012-10-18, 01:34:05,VALID,916.715,VALID,0,VALID,96.9394,VALID,0,VALID,19.1012,VALID,116,VALID,0,
2012-10-18, 01:35:05,VALID,916.678,VALID,0,VALID,96.9698,VALID,0,VALID,19.1417,VALID,118,VALID,0,
2012-10-18, 01:36:05,VALID,916.638,VALID,0,VALID,96.9698,VALID,0,VALID,19.1597,VALID,124,VALID,0,
2012-10-18, 01:37:05,VALID,916.617,VALID,0,VALID,96.9927,VALID,0,VALID,19.1792,VALID,135,VALID,0,
2012-10-18, 01:38:05,VALID,916.63,VALID,0,VALID,97.0003,VALID,0,VALID,19.2182,VALID,135,VALID,0,
2012-10-18, 01:39:05,VALID,916.578,VALID,0,VALID,96.9851,VALID,0,VALID,19.1973,VALID,145,VALID,0,
2012-10-18, 01:40:05,VALID,916.56,VALID,0,VALID,96.9622,VALID,0,VALID,19.1987,VALID,150,VALID,0,
2012-10-18, 01:41:05,VALID,916.556,VALID,0,VALID,96.9622,VALID,0,VALID,19.1807,VALID,139,VALID,0,
2012-10-18, 01:42:05,VALID,916.5,VALID,0,VALID,96.947,VALID,0,VALID,19.1402,VALID,140,VALID,0,
2012-10-18, 01:43:05,VALID,916.514,VALID,0,VALID,96.947,VALID,0,VALID,19.1402,VALID,125,VALID,0,
2012-10-18, 01:44:05,VALID,916.513,VALID,0,VALID,96.947,VALID,0,VALID,19.1402,VALID,125,VALID,0,
2012-10-18, 01:45:05,VALID,916.532,VALID,0,VALID,96.9622,VALID,0,VALID,19.1402,VALID,125,VALID,0,
2012-10-18, 01:46:05,VALID,916.541,VALID,0,VALID,96.9546,VALID,0,VALID,19.1402,VALID,125,VALID,0,
2012-10-18, 01:47:05,VALID,916.539,VALID,0,VALID,96.9851,VALID,0,VALID,19.1807,VALID,155,VALID,0,
2012-10-18, 01:48:05,VALID,916.544,VALID,0,VALID,96.9927,VALID,0,VALID,19.1207,VALID,157,VALID,0,
2012-10-18, 01:49:05,VALID,916.529,VALID,0,VALID,97.0003,VALID,0,VALID,19.1792,VALID,156,VALID,0,
2012-10-18, 01:50:05,VALID,916.549,VALID,0,VALID,96.9927,VALID,0,VALID,19.0832,VALID,138,VALID,0,
2012-10-18, 01:51:05,VALID,916.524,VALID,0,VALID,97.008,VALID,0,VALID,19.1402,VALID,136,VALID,0,
2012-10-18, 01:52:05,VALID,916.562,VALID,0,VALID,97.008,VALID,0,VALID,19.1207,VALID,126,VALID,0,
2012-10-18, 01:53:05,VALID,916.57,VALID,0,VALID,97.0156,VALID,0,VALID,19.0427,VALID,123,VALID,0,
2012-10-18, 01:54:05,VALID,916.56,VALID,0,VALID,97.0308,VALID,0,VALID,19.0817,VALID,126,VALID,0,
2012-10-18, 01:55:05,VALID,916.581,VALID,0,VALID,97.0461,VALID,0,VALID,19.0637,VALID,124,VALID,0,
2012-10-18, 01:56:05,VALID,916.582,VALID,0,VALID,97.0385,VALID,0,VALID,19.1012,VALID,99,VALID,0,
2012-10-18, 01:57:05,VALID,916.561,VALID,0,VALID,97.0537,VALID,0,VALID,19.0817,VALID,99,VALID,0,
2012-10-18, 01:58:05,VALID,916.572,VALID,0,VALID,97.0766,VALID,0,VALID,19.1417,VALID,99,VALID,0,
2012-10-18, 01:59:05,VALID,916.573,VALID,0,VALID,97.1071,VALID,0,VALID,19.0442,VALID,99,VALID,0,
2012-10-18, 02:00:05,VALID,916.558,VALID,0,VALID,97.1223,VALID,0,VALID,19.1012,VALID,99,VALID,0,
2012-10-18, 02:01:05,VALID,916.546,VALID,0,VALID,97.1299,VALID,0,VALID,19.1612,VALID,99,VALID,0,
2012-10-18, 02:02:05,VALID,916.516,VALID,0,VALID,97.1376,VALID,0,VALID,19.1597,VALID,99,VALID,0,
2012-10-18, 02:03:05,VALID,916.537,VALID,0,VALID,97.1376,VALID,0,VALID,19.1612,VALID,102,VALID,0,
2012-10-18, 02:04:05,VALID,916.519,VALID,0,VALID,97.1528,VALID,0,VALID,19.1402,VALID,119,VALID,0,
2012-10-18, 02:05:05,VALID,916.502,VALID,0,VALID,97.1452,VALID,0,VALID,19.2572,VALID,126,VALID,0,
2012-10-18, 02:06:05,VALID,916.5,VALID,0,VALID,97.1528,VALID,0,VALID,19.2572,VALID,127,VALID,0,
2012-10-18, 02:07:05,VALID,916.482,VALID,0,VALID,97.1757,VALID,0,VALID,19.3367,VALID,127,VALID,0,
2012-10-18, 02:08:05,VALID,916.481,VALID,0,VALID,97.1681,VALID,0,VALID,19.3952,VALID,127,VALID,0,
2012-10-18, 02:09:05,VALID,916.465,VALID,0,VALID,97.1452,VALID,0,VALID,19.3742,VALID,127,VALID,0,
2012-10-18, 02:10:05,VALID,916.427,VALID,0,VALID,97.1299,VALID,0,VALID,19.4147,VALID,127,VALID,0,
2012-10-18, 02:11:05,VALID,916.409,VALID,0,VALID,97.0994,VALID,0,VALID,19.4132,VALID,127,VALID,0,
2012-10-18, 02:12:05,VALID,916.353,VALID,0,VALID,97.0994,VALID,0,VALID,19.4327,VALID,127,VALID,0,
2012-10-18, 02:13:05,VALID,916.348,VALID,0,VALID,97.0537,VALID,0,VALID,19.4327,VALID,127,VALID,0,
2012-10-18, 02:14:05,VALID,916.32,VALID,0,VALID,97.0385,VALID,0,VALID,19.4132,VALID,127,VALID,0,
2012-10-18, 02:15:05,VALID,916.276,VALID,0,VALID,97.0232,VALID,0,VALID,19.4132,VALID,127,VALID,0,
2012-10-18, 02:16:05,VALID,916.288,VALID,0,VALID,97.0003,VALID,0,VALID,19.4718,VALID,127,VALID,0,
2012-10-18, 02:17:05,VALID,916.246,VALID,0,VALID,96.9851,VALID,0,VALID,19.4913,VALID,127,VALID,0,
2012-10-18, 02:18:05,VALID,916.27,VALID,0,VALID,96.9622,VALID,0,VALID,19.5303,VALID,127,VALID,0,
2012-10-18, 02:19:05,VALID,916.259,VALID,0,VALID,96.9546,VALID,0,VALID,19.5512,VALID,127,VALID,0,
2012-10-18, 02:20:05,VALID,916.275,VALID,0,VALID,96.9165,VALID,0,VALID,19.5498,VALID,127,VALID,0,
2012-10-18, 02:21:05,VALID,916.279,VALID,0,VALID,96.8707,VALID,0,VALID,19.5693,VALID,127,VALID,0,
2012-10-18, 02:22:05,VALID,916.31,VALID,0,VALID,96.8555,VALID,0,VALID,19.5693,VALID,127,VALID,0,
2012-10-18, 02:23:05,VALID,916.301,VALID,0,VALID,96.7564,VALID,0,VALID,19.4913,VALID,127,VALID,0,
2012-10-18, 02:24:05,VALID,916.303,VALID,0,VALID,96.7107,VALID,0,VALID,19.4523,VALID,127,VALID,0,
2012-10-18, 02:25:05,VALID,916.29,VALID,0,VALID,96.703,VALID,0,VALID,19.4718,VALID,127,VALID,0,
2012-10-18, 02:26:05,VALID,916.269,VALID,0,VALID,96.6878,VALID,0,VALID,19.4327,VALID,127,VALID,0,
2012-10-18, 02:27:05,VALID,916.263,VALID,0,VALID,96.6268,VALID,0,VALID,19.3352,VALID,127,VALID,0,
2012-10-18, 02:28:05,VALID,916.268,VALID,0,VALID,96.5887,VALID,0,VALID,19.3157,VALID,126,VALID,0,
2012-10-18, 02:29:05,VALID,916.265,VALID,0,VALID,96.6039,VALID,0,VALID,19.3157,VALID,127,VALID,0,
2012-10-18, 02:30:05,VALID,916.249,VALID,0,VALID,96.6115,VALID,0,VALID,19.3352,VALID,127,VALID,0,
2012-10-18, 02:31:05,VALID,916.241,VALID,0,VALID,96.6115,VALID,0,VALID,19.3157,VALID,127,VALID,0,
2012-10-18, 02:32:05,VALID,916.223,VALID,0,VALID,96.6344,VALID,0,VALID,19.3352,VALID,127,VALID,0,
2012-10-18, 02:33:05,VALID,916.276,VALID,0,VALID,96.6573,VALID,0,VALID,19.3157,VALID,150,VALID,0,
2012-10-18, 02:34:05,VALID,916.298,VALID,0,VALID,96.6268,VALID,0,VALID,19.3157,VALID,150,VALID,0,
2012-10-18, 02:35:05,VALID,916.317,VALID,0,VALID,96.6039,VALID,0,VALID,19.1987,VALID,150,VALID,0,
2012-10-18, 02:36:05,VALID,916.322,VALID,0,VALID,96.5963,VALID,0,VALID,19.1987,VALID,145,VALID,0,
2012-10-18, 02:37:05,VALID,916.299,VALID,0,VALID,96.5734,VALID,0,VALID,19.2392,VALID,146,VALID,0,
2012-10-18, 02:38:05,VALID,916.287,VALID,0,VALID,96.5963,VALID,0,VALID,19.1597,VALID,146,VALID,0,
2012-10-18, 02:39:05,VALID,916.249,VALID,0,VALID,96.6039,VALID,0,VALID,19.1597,VALID,146,VALID,0,
2012-10-18, 02:40:05,VALID,916.188,VALID,0,VALID,96.5963,VALID,0,VALID,19.1207,VALID,146,VALID,0,
2012-10-18, 02:41:05,VALID,916.165,VALID,0,VALID,96.6115,VALID,0,VALID,19.1402,VALID,159,VALID,0,
2012-10-18, 02:42:05,VALID,916.118,VALID,0,VALID,96.6344,VALID,0,VALID,19.1402,VALID,181,VALID,0,
2012-10-18, 02:43:05,VALID,916.123,VALID,0,VALID,96.6649,VALID,0,VALID,19.0232,VALID,181,VALID,0,
2012-10-18, 02:44:05,VALID,916.09,VALID,0,VALID,96.6878,VALID,0,VALID,19.0427,VALID,181,VALID,0,
2012-10-18, 02:45:05,VALID,916.08,VALID,0,VALID,96.703,VALID,0,VALID,19.0037,VALID,181,VALID,0,
2012-10-18, 02:46:05,VALID,916.095,VALID,0,VALID,96.7411,VALID,0,VALID,19.0427,VALID,161,VALID,0,
2012-10-18, 02:47:05,VALID,916.046,VALID,0,VALID,96.764,VALID,0,VALID,19.0037,VALID,167,VALID,0,
2012-10-18, 02:48:05,VALID,916.045,VALID,0,VALID,96.8021,VALID,0,VALID,19.0637,VALID,167,VALID,0,
2012-10-18, 02:49:05,VALID,916.068,VALID,0,VALID,96.8631,VALID,0,VALID,19.0442,VALID,166,VALID,0,
2012-10-18, 02:50:05,VALID,916.033,VALID,0,VALID,96.8555,VALID,0,VALID,19.0832,VALID,166,VALID,0,
2012-10-18, 02:51:05,VALID,916.008,VALID,0,VALID,96.8936,VALID,0,VALID,19.0232,VALID,166,VALID,0,
2012-10-18, 02:52:05,VALID,916.007,VALID,0,VALID,96.9241,VALID,0,VALID,19.1012,VALID,165,VALID,0,
2012-10-18, 02:53:05,VALID,916.01,VALID,0,VALID,96.9012,VALID,0,VALID,19.0637,VALID,162,VALID,0,
2012-10-18, 02:54:05,VALID,915.993,VALID,0,VALID,96.9394,VALID,0,VALID,19.0037,VALID,162,VALID,0,
2012-10-18, 02:55:05,VALID,915.976,VALID,0,VALID,96.9698,VALID,0,VALID,19.0817,VALID,162,VALID,0,
2012-10-18, 02:56:05,VALID,915.964,VALID,0,VALID,96.9622,VALID,0,VALID,19.0622,VALID,162,VALID,0,
2012-10-18, 02:57:05,VALID,915.945,VALID,0,VALID,96.9851,VALID,0,VALID,19.0817,VALID,162,VALID,0,
2012-10-18, 02:58:05,VALID,915.931,VALID,0,VALID,96.9775,VALID,0,VALID,19.1012,VALID,140,VALID,0,
2012-10-18, 02:59:05,VALID,915.981,VALID,0,VALID,97.008,VALID,0,VALID,19.1012,VALID,140,VALID,0,
2012-10-18, 03:00:05,VALID,915.964,VALID,0,VALID,97.0156,VALID,0,VALID,19.1207,VALID,140,VALID,0,
2012-10-18, 03:01:05,VALID,916.008,VALID,0,VALID,97.0308,VALID,0,VALID,19.0817,VALID,140,VALID,0,
2012-10-18, 03:02:05,VALID,916.007,VALID,0,VALID,97.0308,VALID,0,VALID,19.1597,VALID,140,VALID,0,
2012-10-18, 03:03:05,VALID,916.034,VALID,0,VALID,97.0308,VALID,0,VALID,19.1207,VALID,140,VALID,0,
2012-10-18, 03:04:05,VALID,916.048,VALID,0,VALID,97.0232,VALID,0,VALID,19.1402,VALID,140,VALID,0,
2012-10-18, 03:05:05,VALID,916.058,VALID,0,VALID,97.0232,VALID,0,VALID,19.1597,VALID,140,VALID,0,
2012-10-18, 03:06:05,VALID,916.005,VALID,0,VALID,97.0308,VALID,0,VALID,19.1597,VALID,140,VALID,0,
2012-10-18, 03:07:04,VALID,916.014,VALID,0,VALID,97.0385,VALID,0,VALID,19.1597,VALID,140,VALID,0,
2012-10-18, 03:08:04,VALID,915.974,VALID,0,VALID,97.008,VALID,0,VALID,19.1597,VALID,140,VALID,0,
2012-10-18, 03:09:04,VALID,915.964,VALID,0,VALID,97.0385,VALID,0,VALID,19.1597,VALID,140,VALID,0,
2012-10-18, 03:10:04,VALID,915.975,VALID,0,VALID,97.0308,VALID,0,VALID,19.1597,VALID,140,VALID,0,
2012-10-18, 03:11:04,VALID,915.95,VALID,0,VALID,97.008,VALID,0,VALID,19.1402,VALID,140,VALID,0,
2012-10-18, 03:12:04,VALID,915.91,VALID,0,VALID,97.008,VALID,0,VALID,19.1597,VALID,140,VALID,0,
2012-10-18, 03:13:04,VALID,915.894,VALID,0,VALID,97.0385,VALID,0,VALID,19.1402,VALID,140,VALID,0,
2012-10-18, 03:14:04,VALID,915.869,VALID,0,VALID,97.0461,VALID,0,VALID,19.1597,VALID,140,VALID,0,
2012-10-18, 03:15:04,VALID,915.858,VALID,0,VALID,97.0613,VALID,0,VALID,19.1792,VALID,140,VALID,0,
2012-10-18, 03:16:04,VALID,915.855,VALID,0,VALID,97.0537,VALID,0,VALID,19.2377,VALID,140,VALID,0,
2012-10-18, 03:17:04,VALID,915.831,VALID,0,VALID,97.069,VALID,0,VALID,19.2182,VALID,140,VALID,0,
2012-10-18, 03:18:04,VALID,915.852,VALID,0,VALID,97.069,VALID,0,VALID,19.2377,VALID,140,VALID,0,
2012-10-18, 03:19:04,VALID,915.808,VALID,0,VALID,97.0385,VALID,0,VALID,19.2767,VALID,140,VALID,0,
2012-10-18, 03:20:04,VALID,915.864,VALID,0,VALID,97.0232,VALID,0,VALID,19.2962,VALID,140,VALID,0,
2012-10-18, 03:21:04,VALID,915.871,VALID,0,VALID,97.0003,VALID,0,VALID,19.2767,VALID,140,VALID,0,
2012-10-18, 03:22:04,VALID,915.839,VALID,0,VALID,96.9775,VALID,0,VALID,19.2977,VALID,140,VALID,0,
2012-10-18, 03:23:04,VALID,915.863,VALID,0,VALID,96.9851,VALID,0,VALID,19.2962,VALID,140,VALID,0,
2012-10-18, 03:24:04,VALID,915.876,VALID,0,VALID,96.9698,VALID,0,VALID,19.2767,VALID,140,VALID,0,
2012-10-18, 03:25:04,VALID,915.841,VALID,0,VALID,96.9622,VALID,0,VALID,19.3157,VALID,140,VALID,0,
2012-10-18, 03:26:04,VALID,915.839,VALID,0,VALID,96.9698,VALID,0,VALID,19.3547,VALID,140,VALID,0,
2012-10-18, 03:27:04,VALID,915.849,VALID,0,VALID,96.9698,VALID,0,VALID,19.3742,VALID,140,VALID,0,
2012-10-18, 03:28:04,VALID,915.864,VALID,0,VALID,96.9317,VALID,0,VALID,19.3547,VALID,140,VALID,0,
2012-10-18, 03:29:04,VALID,915.887,VALID,0,VALID,96.9317,VALID,0,VALID,19.3547,VALID,140,VALID,0,
2012-10-18, 03:30:04,VALID,915.908,VALID,0.2,VALID,96.9089,VALID,0,VALID,19.3742,VALID,140,VALID,0,
2012-10-18, 03:31:04,VALID,915.899,VALID,0,VALID,96.9012,VALID,0,VALID,19.4147,VALID,140,VALID,0,
2012-10-18, 03:32:04,VALID,915.895,VALID,0,VALID,96.9012,VALID,0,VALID,19.4327,VALID,140,VALID,0,
2012-10-18, 03:33:04,VALID,915.902,VALID,0.2,VALID,96.886,VALID,0,VALID,19.4327,VALID,140,VALID,0,
2012-10-18, 03:34:04,VALID,915.94,VALID,0,VALID,96.8784,VALID,0,VALID,19.4537,VALID,140,VALID,0,
2012-10-18, 03:35:04,VALID,915.926,VALID,0,VALID,96.8784,VALID,0,VALID,19.4327,VALID,140,VALID,0,
2012-10-18, 03:36:04,VALID,915.919,VALID,0,VALID,96.8479,VALID,0,VALID,19.4327,VALID,140,VALID,0,
2012-10-18, 03:37:04,VALID,915.876,VALID,0,VALID,96.8479,VALID,0,VALID,19.4132,VALID,140,VALID,0,
2012-10-18, 03:38:04,VALID,915.859,VALID,0,VALID,96.8555,VALID,0,VALID,19.3937,VALID,140,VALID,0,
2012-10-18, 03:39:04,VALID,915.897,VALID,0,VALID,96.8326,VALID,0,VALID,19.4327,VALID,140,VALID,0,
2012-10-18, 03:40:04,VALID,915.873,VALID,0,VALID,96.8403,VALID,0,VALID,19.4132,VALID,140,VALID,0,
2012-10-18, 03:41:04,VALID,915.868,VALID,0,VALID,96.8174,VALID,0,VALID,19.4132,VALID,140,VALID,0,
2012-10-18, 03:42:04,VALID,915.868,VALID,0,VALID,96.8479,VALID,0,VALID,19.4132,VALID,140,VALID,0,
2012-10-18, 03:43:04,VALID,915.844,VALID,0,VALID,96.8555,VALID,0,VALID,19.4327,VALID,140,VALID,0,
2012-10-18, 03:44:04,VALID,915.879,VALID,0,VALID,96.8707,VALID,0,VALID,19.4327,VALID,147,VALID,0,
2012-10-18, 03:45:04,VALID,915.87,VALID,0,VALID,96.8403,VALID,0,VALID,19.4523,VALID,155,VALID,0,
2012-10-18, 03:46:04,VALID,915.885,VALID,0,VALID,96.8631,VALID,0,VALID,19.3937,VALID,158,VALID,0,
2012-10-18, 03:47:04,VALID,915.891,VALID,0,VALID,96.8326,VALID,0,VALID,19.3937,VALID,147,VALID,0,
2012-10-18, 03:48:04,VALID,915.886,VALID,0,VALID,96.8555,VALID,0,VALID,19.3937,VALID,151,VALID,0,
2012-10-18, 03:49:04,VALID,915.916,VALID,0,VALID,96.8326,VALID,0,VALID,19.3742,VALID,179,VALID,0,
2012-10-18, 03:50:04,VALID,915.936,VALID,0,VALID,96.8403,VALID,0,VALID,19.3547,VALID,165,VALID,0,
2012-10-18, 03:51:04,VALID,915.902,VALID,0,VALID,96.8326,VALID,0,VALID,19.3157,VALID,171,VALID,0,
2012-10-18, 03:52:04,VALID,915.91,VALID,0,VALID,96.8326,VALID,0,VALID,19.2753,VALID,171,VALID,0,
2012-10-18, 03:53:04,VALID,915.919,VALID,0,VALID,96.8174,VALID,0,VALID,19.2767,VALID,170,VALID,0,
2012-10-18, 03:54:04,VALID,915.88,VALID,0,VALID,96.8555,VALID,0,VALID,19.2572,VALID,171,VALID,0,
2012-10-18, 03:55:04,VALID,915.901,VALID,0,VALID,96.8403,VALID,0,VALID,19.2168,VALID,171,VALID,0,
2012-10-18, 03:56:04,VALID,915.866,VALID,0,VALID,96.8403,VALID,0,VALID,19.1987,VALID,171,VALID,0,
2012-10-18, 03:57:04,VALID,915.888,VALID,0,VALID,96.8784,VALID,0,VALID,19.1987,VALID,160,VALID,0,
2012-10-18, 03:58:04,VALID,915.92,VALID,0,VALID,96.8936,VALID,0,VALID,19.1792,VALID,148,VALID,0,
2012-10-18, 03:59:04,VALID,915.959,VALID,0,VALID,96.8936,VALID,0,VALID,19.1987,VALID,156,VALID,0,
2012-10-18, 04:00:04,VALID,915.91,VALID,0,VALID,96.9165,VALID,0,VALID,19.1792,VALID,169,VALID,0,